Flag for U.S.A. Weather past 2 weeks in Avalon (Santa Catalina Island), California, U.S.A.

Now
69 °F

Passing clouds.


Feels Like: 69 °F
Forecast: 62 / 72 °F
Wind: 10 mph from Northeast

Location: Catalina Airport

Current Time: Aug 20, 2014 at 12:23:14 PM

Latest Report: Aug 20, 2014 at 11:51 AM


Visibility: 10 mi

Pressure: 29.93 "Hg

Humidity: 66%

Dew point: 57 °F

Location of Avalon (Santa Catalina Island)Location

Historic Weather in Avalon (Santa Catalina Island) — Graph

°F

Avalon (Santa Catalina Island) temperature yesterday

Maximum temperature yesterday: 69 °F (at 9:51 AM)
Minimum temperature yesterday: 58 °F (at 3:51 AM)
Average temperature yesterday: 62 °F

Past Weeks' High & Low Weather Summary

 TemperatureHumidityPressure
High83 °F (Aug 15, 11:51 AM)100% (Aug 5, 11:51 PM)30.07 "Hg (Aug 5, 11:51 PM)
Low57 °F (Aug 6, 2:51 AM)11% (Aug 16, 10:51 PM)29.79 "Hg (Aug 18, 3:51 PM)
Average67 °F71%29.93 "Hg
* Reported Aug 5 10:51 AM — Aug 20 10:51 AM, Avalon (Santa Catalina Island), Weather by CustomWeather, © 2014

Note: Actual official high and low records may vary slightly from our data, if they occured in-between our weather recording intervals... More about our weather records

Advertising

Avalon (Santa Catalina Island) weather history for previous 24 hours

 ConditionsComfort  
Time TempWeatherWind HumidityBarometerVisibility
10:51 AM
Aug 20
68 °FPartly sunny.6 mph68%29.94 "Hg10 mi
9:51 AM66 °FPartly sunny.3 mph70%29.93 "Hg10 mi
8:51 AM63 °FOvercast.9 mph75%29.93 "Hg10 mi
7:51 AM62 °FOvercast.3 mph78%29.91 "Hg10 mi
6:51 AM61 °FLow clouds.No wind83%29.90 "Hg10 mi
5:51 AM61 °FLow clouds.3 mph83%29.88 "Hg10 mi
4:51 AM61 °FLow clouds.3 mph87%29.87 "Hg10 mi
3:51 AM61 °FLow clouds.No wind90%29.88 "Hg10 mi
2:51 AM62 °FLow clouds.No wind86%29.87 "Hg10 mi
1:51 AM61 °FLow clouds.No wind90%29.86 "Hg10 mi
12:51 AM61 °FLow clouds.5 mph90%29.87 "Hg10 mi
11:51 PM
Aug 19
61 °FLow clouds.No wind90%29.86 "Hg10 mi
10:51 PM60 °FLow clouds.5 mph90%29.86 "Hg10 mi
9:51 PM61 °FLow clouds.3 mph90%29.86 "Hg10 mi
8:51 PM60 °FLow clouds.6 mph90%29.86 "Hg10 mi
7:51 PM60 °FLow clouds.7 mph90%29.85 "Hg10 mi
6:51 PM61 °FLow clouds.10 mph90%29.84 "Hg10 mi
5:51 PM63 °FLow clouds.12 mph84%29.85 "Hg10 mi
4:51 PM64 °FPartly sunny.15 mph81%29.84 "Hg10 mi
3:51 PM65 °FScattered clouds.14 mph78%29.85 "Hg10 mi
2:51 PM66 °FBroken clouds.12 mph78%29.86 "Hg10 mi
1:51 PM69 °FPartly sunny.8 mph70%29.87 "Hg10 mi
12:51 PM68 °FPartly sunny.10 mph73%29.89 "Hg10 mi
Weather by CustomWeather, © 2014

See weather overviewHow to use our weather pages